PBO Station Position Time Series. Reference Frame : NAM14
Format Version,1.1.1
4-character ID,P798
Station name,YNPGrandTgWY2010
Begin Date, 2010-09-17
End Date, 2023-06-26
Release Date, 2023-06-27
Reference position, 43.7960216136 North Latitude, -110.9605918288 East Longitude, 2450.54935 meters elevation,
Date, North (mm), East (mm), Vertical (mm), North Std. Deviation (mm), East Std. Deviation (mm),              Vertical Std. Deviation (mm), Quality,
2010-09-17,0.00, 0.00, 0.00, 2.12, 1.53, 7.01, repro,
2010-09-18,0.85, 0.45, 2.27, 2.17, 1.56, 7.13, repro,
2010-09-19,-0.05, 0.38, 2.26, 2.18, 1.56, 7.14, repro,
2010-09-20,0.04, 0.83, 13.46, 2.14, 1.54, 7.09, repro,
2010-09-21,-1.18, 0.37, 1.07, 2.26, 1.64, 7.49, repro,
2010-09-22,-1.62, -0.65, 9.58, 2.17, 1.59, 7.28, repro,
2010-09-23,0.52, 0.59, 2.82, 2.17, 1.56, 7.17, repro,
2010-09-24,0.38, -1.50, 3.19, 2.15, 1.54, 7.07, repro,
2010-09-25,0.28, 0.95, -10.50, 2.14, 1.53, 7.03, repro,
2010-09-26,-0.60, 0.61, -3.01, 2.23, 1.59, 7.19, repro,
2010-09-27,-0.50, 0.60, -0.60, 2.25, 1.59, 7.22, repro,
2010-09-28,-0.54, -0.73, 0.19, 2.24, 1.61, 7.25, repro,
2010-09-29,1.76, -0.03, 4.56, 2.12, 1.54, 7.00, repro,
2010-09-30,1.63, -0.27, -0.35, 2.18, 1.57, 7.13, repro,
2010-10-01,1.73, 1.16, -0.83, 2.26, 1.60, 7.38, repro,
2010-10-02,-0.32, 0.59, 1.45, 2.12, 1.52, 7.02, repro,
2010-10-03,0.34, 0.10, 7.02, 2.16, 1.56, 7.11, repro,
2010-10-04,0.78, 0.49, 8.93, 2.17, 1.58, 7.20, repro,
2010-10-05,2.69, 0.24, 1.58, 2.11, 1.54, 6.99, repro,
2010-10-06,0.81, 2.82, -1.58, 2.18, 1.55, 7.14, repro,
2010-10-07,-0.18, 0.30, -3.32, 2.14, 1.53, 7.02, repro,
2010-10-08,1.78, -0.08, -8.29, 2.19, 1.59, 7.23, repro,
2010-10-09,2.38, -0.95, -2.31, 2.14, 1.55, 7.10, repro,
2010-10-10,1.28, -0.83, -0.67, 2.19, 1.60, 7.20, repro,
2010-10-11,1.07, 0.22, -5.05, 2.21, 1.57, 7.13, repro,
2010-10-12,-0.35, -0.89, -5.15, 2.15, 1.55, 7.04, repro,
2010-10-13,0.04, 0.06, -3.63, 2.17, 1.57, 7.14, repro,
2010-10-14,1.12, 0.11, -2.51, 2.16, 1.57, 7.13, repro,
2010-10-15,1.17, -0.22, 0.41, 2.21, 1.63, 7.36, repro,
2010-10-16,1.04, 0.29, 0.71, 2.26, 1.60, 7.29, repro,
2010-10-17,1.90, -0.00, 4.95, 2.21, 1.61, 7.27, repro,
2010-10-18,0.09, -0.29, -1.74, 2.15, 1.56, 7.00, repro,
2010-10-19,0.43, -0.20, -1.26, 2.11, 1.51, 6.85, repro,
2010-10-20,-1.13, -0.09, -2.23, 2.11, 1.52, 6.90, repro,
2010-10-21,0.98, -0.71, 1.48, 2.16, 1.53, 6.99, repro,
2010-10-22,0.99, -0.06, 7.66, 2.20, 1.58, 7.31, repro,
2010-10-23,1.28, -0.44, 4.79, 2.27, 1.63, 7.37, repro,
2010-10-24,2.33, 1.14, -1.78, 2.21, 1.58, 7.15, repro,
2010-10-25,1.67, 3.99, -0.05, 2.34, 1.62, 7.34, repro,
2010-10-26,1.28, 2.48, -15.72, 2.22, 1.55, 7.15, repro,
2010-10-27,0.15, 2.04, -17.20, 2.36, 1.60, 7.55, repro,
2010-10-28,0.49, -0.07, -6.31, 2.38, 1.61, 7.46, repro,
2010-10-29,2.00, -0.33, -0.74, 2.22, 1.56, 7.21, repro,
2010-10-30,1.06, 0.47, 1.07, 2.16, 1.53, 6.99, repro,
2010-10-31,1.03, 3.03, -10.20, 2.18, 1.57, 7.21, repro,
2010-11-01,-1.11, 2.95, -15.04, 2.24, 1.60, 7.33, repro,
2010-11-02,-0.09, 0.69, -10.11, 2.17, 1.54, 7.01, repro,
2010-11-03,0.60, -0.57, -11.98, 2.21, 1.54, 7.11, repro,
2010-11-04,0.44, 1.43, -9.23, 2.18, 1.53, 7.02, repro,
2010-11-05,-0.27, 1.44, -0.83, 2.30, 1.61, 7.45, repro,
2010-11-06,1.99, 0.91, -0.67, 2.26, 1.57, 7.25, repro,
2010-11-07,1.11, -0.10, 2.41, 2.15, 1.52, 6.91, repro,
2010-11-08,0.40, 0.83, -1.84, 2.18, 1.54, 7.00, repro,
2010-11-09,-0.03, 0.15, -9.30, 2.16, 1.51, 6.89, repro,
2010-11-10,-0.70, 1.29, -13.10, 2.19, 1.55, 7.05, repro,
2010-11-11,1.22, 0.13, 2.09, 2.15, 1.51, 6.89, repro,
2010-11-12,0.68, 0.30, -8.08, 2.09, 1.49, 6.71, repro,
2010-11-13,0.22, 1.54, -10.12, 2.17, 1.56, 6.98, repro,
2010-11-14,0.93, 0.17, -7.81, 2.26, 1.59, 7.23, repro,
2010-11-15,1.15, -0.48, -9.28, 2.32, 1.60, 7.23, repro,
2010-11-16,2.13, 0.36, 4.21, 2.37, 1.61, 7.50, repro,
2010-11-17,2.47, 2.22, -14.29, 2.27, 1.61, 7.12, repro,
2010-11-18,1.14, 2.40, -10.00, 2.18, 1.52, 6.90, repro,
2010-11-19,-0.30, 2.19, -0.31, 2.27, 1.57, 7.30, repro,
2010-11-20,0.50, 0.46, 2.68, 2.20, 1.54, 7.02, repro,
2010-11-21,3.93, -2.28, -5.83, 2.19, 1.58, 7.08, repro,
2010-11-22,2.44, -2.17, -5.68, 2.33, 1.62, 7.71, repro,
2010-11-23,2.03, -1.57, -12.19, 2.11, 1.50, 6.78, repro,
2010-11-24,2.65, -3.25, 2.95, 2.12, 1.51, 6.87, repro,
2010-11-25,1.07, -3.47, -1.41, 2.11, 1.51, 6.87, repro,
2010-11-26,1.49, -1.39, -7.27, 2.16, 1.53, 7.02, repro,
2010-11-27,2.67, -0.70, -5.02, 2.14, 1.50, 6.87, repro,
2010-11-28,-0.63, 0.02, 1.62, 2.30, 1.56, 7.47, repro,
2010-11-29,1.45, -0.84, -10.92, 2.14, 1.51, 6.98, repro,
2010-11-30,1.62, -1.27, -12.82, 2.11, 1.50, 6.83, repro,
2010-12-01,0.71, -0.96, -14.17, 2.13, 1.51, 6.87, repro,
2010-12-02,-0.28, -0.02, -18.89, 2.16, 1.51, 6.91, repro,
2010-12-03,0.19, 1.12, -23.78, 2.22, 1.53, 7.06, repro,
2010-12-04,0.03, 0.15, -28.53, 2.23, 1.53, 7.15, repro,
2010-12-05,0.40, 1.09, -15.89, 2.19, 1.54, 7.07, repro,
2010-12-06,0.68, 1.31, -14.96, 2.13, 1.53, 6.95, repro,
2010-12-07,3.13, -0.36, -10.07, 2.89, 2.09, 9.59, repro,
2010-12-08,0.66, 0.15, -13.84, 2.34, 1.64, 7.45, repro,
2010-12-09,6.39, -2.39, -12.42, 7.51, 5.36, 22.77, repro,
2010-12-10,0.29, 2.20, 2.38, 4.40, 3.24, 14.81, repro,
2010-12-11,-0.47, -0.72, -11.84, 2.09, 1.51, 6.84, repro,
2010-12-12,-2.20, -0.83, -14.93, 2.28, 1.59, 7.23, repro,
2010-12-13,-0.07, -0.35, -16.64, 2.18, 1.56, 7.06, repro,
2010-12-14,-1.71, -1.46, -3.43, 4.59, 3.10, 14.91, repro,
2010-12-17,1.75, 1.09, -34.02, 4.07, 2.98, 13.58, repro,
2010-12-18,4.03, -1.73, -27.49, 5.57, 4.21, 19.18, repro,
2010-12-21,-2.91, 1.22, -7.62, 3.97, 2.90, 13.33, repro,
2010-12-22,-0.80, 0.25, 4.13, 2.80, 1.96, 8.79, repro,
2010-12-23,-2.58, 2.51, 8.89, 5.50, 3.69, 16.90, repro,
2010-12-24,-0.31, 0.61, 3.64, 6.35, 4.21, 19.00, repro,
2010-12-25,-0.00, 0.56, -1.00, 3.11, 2.16, 9.85, repro,
2010-12-26,0.77, 0.58, -1.24, 2.52, 1.73, 7.85, repro,
2010-12-30,-2.56, 1.30, 1.89, 5.99, 4.00, 17.83, repro,
2010-12-31,0.30, 2.19, -13.51, 3.66, 2.49, 11.17, repro,
2011-01-01,0.57, -0.86, -19.50, 4.24, 3.03, 13.16, repro,
2011-01-02,-1.37, -0.27, -4.46, 5.71, 3.78, 17.69, repro,
2011-01-03,-0.83, -0.17, -16.15, 4.44, 3.13, 14.99, repro,
2011-01-04,-0.21, -1.44, -7.21, 3.63, 2.43, 11.72, repro,
2011-01-05,3.08, 2.77, -3.09, 107.11, 100.27, 386.83, repro,
2011-01-06,1.15, -0.93, -10.29, 4.86, 3.26, 15.05, repro,
2011-01-07,1.02, -0.88, -18.71, 3.89, 2.62, 12.10, repro,
2011-01-08,-1.74, -1.46, 12.01, 22.12, 10.38, 44.24, repro,
2011-01-09,4.43, 4.25, -39.82, 5.10, 3.40, 15.87, repro,
2011-01-10,0.68, 1.01, -33.71, 8.00, 5.12, 20.89, repro,
2011-01-11,0.13, -0.74, -35.79, 4.89, 3.48, 13.98, repro,
2011-01-12,0.09, 1.12, -17.03, 7.64, 5.08, 24.77, repro,
2011-01-26,0.99, -0.96, 1.02, 5.34, 3.23, 14.35, repro,
2011-01-27,0.97, 0.85, -4.31, 3.23, 2.16, 10.20, repro,
2011-01-28,-0.47, 1.75, -8.71, 2.59, 1.76, 7.86, repro,
2011-01-29,1.36, 0.21, -4.58, 2.21, 1.53, 7.01, repro,
2011-01-30,1.26, 0.20, -6.31, 2.21, 1.53, 7.01, repro,
2011-01-31,2.99, 0.54, -13.77, 2.12, 1.53, 6.97, repro,
2011-02-01,1.86, 0.05, -10.27, 2.18, 1.54, 7.20, repro,
2011-02-02,4.12, 0.65, -7.69, 2.47, 1.72, 7.72, repro,
2011-02-03,2.62, 0.76, -8.87, 2.90, 2.03, 9.38, repro,
2011-02-04,1.72, -0.39, -9.67, 2.17, 1.57, 7.16, repro,
2011-02-05,3.05, 0.73, -12.28, 2.80, 1.97, 8.76, repro,
2011-02-06,3.04, -0.14, -17.89, 2.54, 1.86, 8.34, repro,
2011-02-07,-2.37, 1.44, -28.12, 2.30, 1.70, 7.72, repro,
2011-02-08,6.67, 4.91, -17.09, 6.42, 4.84, 22.74, repro,
2011-02-09,1.81, 4.28, -20.44, 3.91, 2.61, 12.34, repro,
2011-02-10,11.85, -68.65, 140.22, 69.08, 347.97, 487.27, repro,
2011-02-11,-4.98, 1.25, -22.72, 5.21, 2.96, 13.87, repro,
2011-02-12,0.00, -0.45, -3.17, 3.62, 2.35, 10.73, repro,
2011-02-13,3.97, 2.35, -17.07, 2.32, 1.64, 7.49, repro,
2011-02-14,8.89, 3.03, -11.75, 2.21, 1.58, 7.22, repro,
2011-02-15,9.04, 3.57, -10.19, 2.21, 1.59, 7.26, repro,
2011-02-16,10.62, 3.34, 6.33, 2.21, 1.59, 7.28, repro,
2011-02-17,7.17, -1.76, 27.06, 2.15, 1.57, 7.07, repro,
2011-02-18,6.95, -1.46, 32.08, 2.25, 1.59, 7.25, repro,
2011-02-19,-2.67, -1.20, 18.25, 7.61, 5.85, 27.29, repro,
2011-06-14,-2.80, -1.62, 31.18, 5.93, 3.84, 18.18, repro,
2011-06-15,-3.81, -0.06, 2.87, 5.22, 3.42, 15.85, repro,
2011-06-16,-3.56, -0.22, -5.47, 4.26, 2.80, 12.75, repro,
2011-06-17,-0.64, -0.81, -12.41, 5.19, 3.40, 15.85, repro,
2011-06-18,-1.71, 2.84, -21.23, 4.78, 3.09, 14.14, repro,
2011-06-19,6.01, 4.13, -24.45, 5.46, 3.42, 15.36, repro,
2011-06-20,0.93, 5.05, -19.20, 3.03, 2.13, 10.08, repro,
2011-06-21,1.26, 2.56, -7.64, 2.25, 1.56, 7.16, repro,
2011-06-22,2.40, 2.01, -9.54, 2.16, 1.53, 7.03, repro,
2011-06-23,1.39, 1.75, -8.01, 2.19, 1.55, 7.16, repro,
2011-06-24,0.21, 0.28, -16.22, 2.23, 1.55, 7.18, repro,
2011-06-25,0.22, 1.49, -9.40, 2.22, 1.55, 7.18, repro,
2011-06-26,0.11, 0.44, -5.63, 2.30, 1.59, 7.44, repro,
2011-06-27,-0.19, 2.03, -11.13, 2.26, 1.55, 7.21, repro,
2011-06-28,1.67, 2.14, -8.92, 2.21, 1.53, 7.15, repro,
2011-06-29,-0.34, 1.71, -1.17, 2.21, 1.56, 7.21, repro,
2011-06-30,0.37, 1.95, -11.41, 2.22, 1.55, 7.17, repro,
2011-07-01,2.03, 2.29, -7.82, 2.24, 1.54, 7.22, repro,
2011-07-02,1.62, 2.88, -10.65, 2.23, 1.55, 7.24, repro,
2011-07-03,0.76, 1.99, -10.21, 2.22, 1.54, 7.14, repro,
2011-07-04,0.21, 2.03, -2.41, 2.22, 1.56, 7.21, repro,
2011-07-05,1.01, 3.22, -13.17, 2.23, 1.55, 7.18, repro,
2011-07-06,4.04, 0.23, -15.57, 2.24, 1.54, 7.18, repro,
2011-07-07,2.00, 1.45, -13.23, 2.24, 1.55, 7.24, repro,
2011-07-08,2.10, -0.50, -3.94, 2.24, 1.55, 7.22, repro,
2011-07-09,0.23, 1.83, -5.76, 2.28, 1.60, 7.26, repro,
2011-07-10,1.51, 1.07, -12.14, 2.23, 1.55, 7.17, repro,
2011-07-11,-1.06, 0.99, -13.21, 2.37, 1.64, 7.56, repro,
2011-07-12,3.04, 1.81, -1.84, 2.25, 1.55, 7.26, repro,
2011-07-13,3.65, 1.93, -3.99, 2.22, 1.55, 7.23, repro,
2011-07-14,-0.12, 2.39, -10.06, 2.22, 1.54, 7.16, repro,
2011-07-15,-0.09, 0.82, -9.22, 2.28, 1.57, 7.27, repro,
2011-07-16,0.47, -0.27, -7.91, 2.35, 1.63, 7.46, repro,
2011-07-17,2.79, 1.64, -12.00, 2.24, 1.54, 7.20, repro,
2011-07-18,2.15, 2.25, -11.73, 2.25, 1.56, 7.31, repro,
2011-07-19,3.55, 1.07, 6.39, 2.29, 1.62, 7.45, repro,
2011-07-20,0.60, 1.14, -10.49, 2.32, 1.57, 7.31, repro,
2011-07-21,1.84, -0.51, -6.91, 2.31, 1.58, 7.31, repro,
2011-07-22,1.41, -0.30, -7.99, 2.23, 1.54, 7.14, repro,
2011-07-23,1.34, 0.08, -16.55, 2.35, 1.59, 7.49, repro,
2011-07-24,1.95, 0.40, -8.63, 2.30, 1.57, 7.33, repro,
2011-07-25,1.76, 1.02, -4.48, 2.28, 1.55, 7.21, repro,
2011-07-26,3.95, 0.53, -6.32, 2.30, 1.55, 7.24, repro,
2011-07-27,2.04, -0.40, -5.20, 2.29, 1.57, 7.25, repro,
2011-07-28,5.30, -0.98, -6.69, 2.28, 1.57, 7.28, repro,
2011-07-29,1.61, 0.14, -3.07, 2.28, 1.55, 7.24, repro,
2011-07-30,1.92, 1.16, -4.37, 2.30, 1.58, 7.42, repro,
2011-07-31,0.48, 0.34, -6.54, 2.34, 1.60, 7.49, repro,
2011-08-01,0.73, 0.54, -6.18, 2.32, 1.60, 7.47, repro,
2011-08-02,-0.37, -2.16, -0.39, 2.26, 1.58, 7.37, repro,
2011-08-03,3.75, -0.33, -6.48, 2.32, 1.64, 7.61, repro,
2011-08-04,3.43, -0.64, -10.06, 2.28, 1.55, 7.30, repro,
2011-08-05,2.73, 2.43, -4.35, 2.29, 1.57, 7.31, repro,
2011-08-06,1.43, -1.09, -6.50, 2.29, 1.58, 7.33, repro,
2011-08-07,1.59, 0.23, -0.42, 2.27, 1.57, 7.32, repro,
2011-08-08,0.69, -1.08, -1.30, 2.28, 1.57, 7.35, repro,
2011-08-09,1.10, -0.48, -6.39, 2.37, 1.62, 7.64, repro,
2011-08-10,1.15, 0.90, -3.30, 2.36, 1.63, 7.58, repro,
2011-08-11,1.44, 0.30, 0.35, 2.39, 1.65, 7.72, repro,
2011-08-12,0.95, -0.35, -5.60, 2.39, 1.65, 7.68, repro,
2011-08-13,2.49, 0.96, -3.20, 2.32, 1.60, 7.43, repro,
2011-08-14,2.68, -0.51, -6.17, 2.28, 1.58, 7.33, repro,
2011-08-15,0.81, -0.66, -6.60, 2.34, 1.61, 7.49, repro,
2011-08-16,0.50, -0.17, -5.40, 2.33, 1.62, 7.50, repro,
2011-08-17,-0.63, -1.09, -5.19, 2.30, 1.60, 7.36, repro,
2011-08-18,-0.66, -0.35, -7.79, 2.29, 1.59, 7.42, repro,
2011-08-19,2.55, 0.51, -2.76, 2.50, 1.76, 8.15, repro,
2011-08-20,0.95, 1.86, -6.71, 2.24, 1.54, 7.21, repro,
2011-08-21,0.85, 2.90, -4.52, 2.28, 1.58, 7.34, repro,
2011-08-22,2.37, 0.14, -6.01, 2.24, 1.56, 7.22, repro,
2011-08-23,3.34, -0.01, 2.97, 2.28, 1.60, 7.37, repro,
2011-08-24,2.61, 0.62, -0.77, 2.26, 1.55, 7.22, repro,
2011-08-25,3.24, 0.85, -3.57, 2.31, 1.60, 7.48, repro,
2011-08-26,0.56, 0.47, 0.26, 2.31, 1.64, 7.51, repro,
2011-08-27,1.99, -0.27, -6.22, 2.28, 1.58, 7.32, repro,
2011-08-28,2.62, -0.47, -3.95, 2.27, 1.56, 7.27, repro,
2011-08-29,0.51, 0.60, -3.98, 2.25, 1.56, 7.19, repro,
2011-08-30,3.65, -0.31, -1.27, 2.31, 1.58, 7.34, repro,
2011-08-31,0.90, -0.49, 2.72, 2.36, 1.61, 7.40, repro,
2011-09-01,-0.83, 1.36, -5.51, 2.42, 1.63, 7.76, repro,
2011-09-02,1.25, -0.29, -3.18, 2.38, 1.59, 7.61, repro,
2011-09-03,1.68, 0.31, -9.87, 2.26, 1.54, 7.17, repro,
2011-09-04,2.00, -0.11, -4.39, 2.25, 1.54, 7.18, repro,
2011-09-05,2.84, 1.52, -1.99, 2.28, 1.58, 7.39, repro,
2011-09-06,2.53, 0.36, -7.32, 2.29, 1.57, 7.26, repro,
2011-09-07,0.94, 0.21, -13.29, 2.28, 1.59, 7.40, repro,
2011-09-08,2.66, 1.65, -8.97, 2.26, 1.57, 7.27, repro,
2011-09-09,1.97, 0.77, -8.35, 2.27, 1.58, 7.31, repro,
2011-09-10,2.97, 1.95, -9.05, 2.35, 1.63, 7.58, repro,
2011-09-11,1.57, -0.03, -0.02, 2.40, 1.65, 7.69, repro,
2011-09-12,2.30, 0.30, -9.50, 2.23, 1.57, 7.22, repro,
2011-09-13,1.33, -0.36, -8.22, 2.26, 1.57, 7.28, repro,
2011-09-14,1.47, 0.08, -10.65, 2.22, 1.54, 7.11, repro,
2011-09-15,0.38, 1.12, -1.88, 2.36, 1.62, 7.46, repro,
2011-09-16,0.38, 0.46, -5.03, 2.38, 1.62, 7.56, repro,
2011-09-17,3.00, -0.25, 6.44, 2.28, 1.56, 7.32, repro,
2011-09-18,2.84, 0.95, -1.82, 2.22, 1.54, 7.18, repro,
2011-09-19,0.48, -0.10, -2.29, 2.33, 1.61, 7.47, repro,
2011-09-20,1.34, -0.23, -0.66, 2.33, 1.61, 7.41, repro,
2011-09-21,0.99, 0.62, -4.10, 2.35, 1.58, 7.51, repro,
2011-09-22,1.70, -0.18, -0.11, 2.26, 1.56, 7.25, repro,
2011-09-23,2.23, 1.12, 0.76, 2.36, 1.62, 7.47, repro,
2011-09-24,0.28, 0.72, 4.04, 2.19, 1.53, 7.03, repro,
2011-09-25,0.01, 1.32, 0.53, 2.28, 1.57, 7.31, repro,
2011-09-26,0.23, 0.23, 1.09, 2.35, 1.58, 7.47, repro,
2011-09-27,2.26, -0.47, -1.18, 2.34, 1.59, 7.48, repro,
2011-09-28,3.31, -0.89, -2.09, 2.36, 1.64, 7.57, repro,
2011-09-29,2.12, 0.71, -2.26, 2.27, 1.62, 7.27, repro,
2011-09-30,-0.73, 0.85, -4.70, 2.45, 1.73, 7.69, repro,
2011-10-01,2.07, 0.69, 0.97, 2.37, 1.64, 7.49, repro,
2011-10-02,2.58, 0.34, 3.73, 2.36, 1.63, 7.47, repro,
2011-10-03,3.35, 0.33, 3.65, 2.38, 1.65, 7.57, repro,
2011-10-04,2.12, 1.46, 2.36, 2.22, 1.57, 7.15, repro,
2011-10-05,0.78, 1.57, 10.74, 2.24, 1.58, 7.18, repro,
2011-10-06,-0.04, 0.16, 3.96, 2.43, 1.68, 7.60, repro,
2011-10-07,1.91, -0.26, -4.87, 2.49, 1.68, 7.93, repro,
2011-10-08,1.85, -0.40, -6.15, 2.32, 1.59, 7.23, repro,
2011-10-09,2.13, 0.68, -3.80, 2.29, 1.58, 7.27, repro,
2011-10-10,1.23, 0.45, 4.55, 2.42, 1.64, 7.70, repro,
2011-10-11,2.38, 0.51, 8.04, 2.49, 1.74, 7.81, repro,
2011-10-12,3.16, 0.28, 0.35, 2.37, 1.63, 7.51, repro,
2011-10-13,3.24, -1.25, 3.48, 2.34, 1.64, 7.53, repro,
2011-10-14,2.64, -1.77, 5.32, 2.31, 1.62, 7.46, repro,
2011-10-15,2.70, -0.34, 9.26, 2.25, 1.55, 7.21, repro,
2011-10-16,0.54, 0.36, 3.57, 2.25, 1.57, 7.26, repro,
2011-10-17,1.00, -1.00, -6.51, 2.25, 1.55, 7.18, repro,
2011-10-18,1.28, -0.12, -4.72, 2.31, 1.61, 7.43, repro,
2011-10-19,1.17, -0.40, 0.02, 2.32, 1.62, 7.49, repro,
2011-10-20,1.08, -1.39, 3.26, 2.24, 1.58, 7.20, repro,
2011-10-21,-0.09, 0.04, -2.87, 2.20, 1.55, 7.09, repro,
2011-10-22,1.60, 0.15, -3.31, 2.25, 1.56, 7.19, repro,
2011-10-23,0.43, 0.30, -3.47, 2.30, 1.56, 7.22, repro,
2011-10-24,1.28, -0.80, -3.36, 2.30, 1.59, 7.32, repro,
2011-10-25,1.91, 0.11, -6.04, 2.25, 1.59, 7.34, repro,
2011-10-26,1.47, -0.23, -3.09, 2.15, 1.53, 6.98, repro,
2011-10-27,1.45, 0.45, 2.22, 2.17, 1.55, 7.02, repro,
2011-10-28,1.31, 0.04, -2.57, 2.27, 1.60, 7.30, repro,
2011-10-29,-1.28, -0.65, -1.30, 2.26, 1.57, 7.22, repro,
2011-10-30,-0.75, -0.56, 0.32, 2.30, 1.58, 7.36, repro,
2011-10-31,0.88, -0.72, -1.90, 2.22, 1.55, 7.13, repro,
2011-11-01,1.56, 0.10, -0.33, 2.24, 1.60, 7.28, repro,
2011-11-02,0.11, -0.32, -6.51, 2.21, 1.55, 7.07, repro,
2011-11-03,1.09, 0.27, -1.42, 2.26, 1.59, 7.28, repro,
2011-11-04,0.43, 0.06, 5.04, 2.20, 1.56, 7.11, repro,
2011-11-05,0.03, 0.21, 3.88, 2.18, 1.55, 7.06, repro,
2011-11-06,2.16, 0.35, -4.30, 2.22, 1.56, 7.33, repro,
2011-11-07,1.98, -0.16, -12.26, 2.33, 1.63, 7.60, repro,
2011-11-08,2.18, -0.19, -11.98, 2.23, 1.57, 7.20, repro,
2011-11-09,1.66, 0.92, -13.37, 2.31, 1.64, 7.39, repro,
2011-11-10,1.57, 0.23, -10.86, 2.23, 1.58, 7.19, repro,
2011-11-11,0.20, -0.32, 0.08, 2.19, 1.56, 7.13, repro,
2011-11-12,1.17, -0.13, 1.88, 2.24, 1.57, 7.20, repro,
2011-11-13,2.11, -0.40, 8.08, 2.20, 1.54, 7.02, repro,
2011-11-14,0.89, 0.39, 6.61, 2.22, 1.60, 7.26, repro,
2011-11-15,2.88, -0.20, 2.95, 2.17, 1.54, 6.99, repro,
2011-11-16,3.36, 0.37, -10.77, 2.17, 1.55, 7.05, repro,
2011-11-17,2.40, -0.67, -8.59, 2.20, 1.54, 7.00, repro,
2011-11-18,3.29, 1.50, 2.61, 2.24, 1.57, 7.21, repro,
2011-11-19,2.94, -0.52, 1.18, 2.29, 1.59, 7.15, repro,
2011-11-20,2.39, -0.18, 0.22, 2.32, 1.59, 7.42, repro,
2011-11-21,2.81, 0.13, -0.28, 2.30, 1.59, 7.33, repro,
2011-11-22,2.40, 0.16, 0.17, 2.26, 1.56, 7.27, repro,
2011-11-23,1.54, 0.09, -8.97, 2.34, 1.59, 7.27, repro,
2011-11-24,-2.07, -0.72, 0.18, 2.31, 1.59, 7.21, repro,
2011-11-25,1.52, -1.26, 2.86, 2.32, 1.61, 7.28, repro,
2011-11-26,1.33, -1.23, -11.52, 2.16, 1.55, 7.01, repro,
2011-11-27,1.09, 0.49, -7.53, 2.22, 1.58, 7.21, repro,
2011-11-28,1.32, 0.81, -9.68, 2.25, 1.60, 7.26, repro,
2011-11-29,1.25, 0.63, -13.30, 2.19, 1.55, 7.06, repro,
2011-11-30,2.42, -0.30, -6.08, 2.43, 1.66, 7.58, repro,
2011-12-01,3.70, -0.09, -11.43, 2.15, 1.54, 7.02, repro,
2011-12-02,1.41, -0.64, -4.86, 2.22, 1.59, 7.21, repro,
2011-12-03,2.99, 0.81, -16.17, 2.21, 1.61, 7.25, repro,
2011-12-04,2.67, -0.11, -16.88, 2.26, 1.60, 7.39, repro,
2011-12-05,4.25, -0.23, -14.67, 2.15, 1.56, 6.99, repro,
2011-12-06,2.00, -1.14, -11.09, 2.15, 1.56, 7.01, repro,
2011-12-07,2.95, -1.04, -7.19, 2.16, 1.56, 7.09, repro,
2011-12-08,2.73, 0.04, -6.75, 2.17, 1.56, 7.10, repro,
2011-12-09,2.77, 0.01, -9.83, 2.18, 1.57, 7.11, repro,
2011-12-10,0.56, -0.40, -9.68, 2.23, 1.58, 7.16, repro,
2011-12-11,2.27, -0.60, -3.21, 2.28, 1.64, 7.43, repro,
2011-12-12,3.33, 1.23, -5.92, 2.23, 1.59, 7.23, repro,
2011-12-13,1.11, 0.65, -4.23, 2.19, 1.57, 7.09, repro,
2011-12-14,3.42, 0.25, -5.70, 2.14, 1.54, 6.98, repro,
2011-12-15,3.22, 0.56, -4.40, 2.23, 1.60, 7.16, repro,
2011-12-16,3.05, -0.15, -7.85, 2.18, 1.57, 7.06, repro,
2011-12-17,2.29, 0.12, -11.38, 2.19, 1.56, 7.14, repro,
2011-12-18,1.90, 0.40, -3.39, 2.21, 1.54, 7.17, repro,
2011-12-19,1.32, 0.11, -0.72, 2.21, 1.56, 7.14, repro,
2011-12-20,1.10, 0.07, -4.91, 2.29, 1.62, 7.25, repro,
2011-12-21,1.44, -0.17, -2.13, 2.08, 1.49, 6.76, repro,
2011-12-22,1.07, 1.39, -17.44, 2.11, 1.50, 6.85, repro,
2011-12-23,1.22, -0.59, -8.88, 2.14, 1.55, 6.99, repro,
2011-12-24,1.45, 0.43, -11.32, 2.20, 1.63, 7.26, repro,
2011-12-25,1.57, 1.52, -13.73, 2.14, 1.54, 6.99, repro,
2011-12-26,1.37, 1.18, -1.34, 2.16, 1.54, 7.00, repro,
2011-12-27,1.50, 0.69, -3.81, 2.13, 1.53, 6.95, repro,
2011-12-28,1.29, 0.50, -6.49, 2.15, 1.53, 6.95, repro,
2011-12-29,0.94, 2.16, -1.80, 2.19, 1.57, 7.14, repro,
2011-12-30,1.50, 1.60, -2.30, 2.16, 1.55, 7.05, repro,
2011-12-31,-0.20, 0.37, -5.90, 2.33, 1.60, 7.56, repro,
2012-01-01,0.33, 0.34, -18.33, 2.11, 1.50, 6.84, repro,
2012-01-02,-0.03, 0.87, -14.81, 2.17, 1.53, 7.00, repro,
2012-01-03,-2.17, 0.34, -13.39, 2.21, 1.59, 7.24, repro,
2012-01-04,0.94, 1.23, -12.43, 2.13, 1.52, 6.97, repro,
2012-01-05,0.95, 0.18, -8.11, 2.21, 1.56, 7.21, repro,
2012-01-06,1.52, -1.25, -2.48, 2.15, 1.52, 7.01, repro,
2012-01-07,0.82, 0.78, -7.60, 2.14, 1.55, 6.94, repro,
2012-01-08,-0.84, 1.14, -11.30, 2.10, 1.49, 6.79, repro,
2012-01-09,0.37, 0.52, -10.11, 2.11, 1.51, 6.87, repro,
2012-01-10,0.57, 1.18, -9.45, 2.11, 1.49, 6.84, repro,
2012-01-11,0.78, 0.92, -12.29, 2.13, 1.52, 6.96, repro,
2012-01-12,0.35, 0.02, -6.30, 2.10, 1.50, 6.81, repro,
2012-01-13,0.19, 1.11, -5.82, 2.12, 1.52, 6.97, repro,
2012-01-14,-1.26, 0.58, -7.36, 2.14, 1.53, 6.99, repro,
2012-01-15,1.67, 1.83, -3.84, 2.13, 1.52, 6.96, repro,
2012-01-16,0.09, 0.52, -8.55, 2.08, 1.49, 6.79, repro,
2012-01-17,0.55, 0.62, -5.49, 2.09, 1.49, 6.83, repro,
2012-01-18,0.47, 2.02, 0.75, 2.14, 1.52, 7.09, repro,
2012-01-19,4.69, 1.61, -0.92, 2.13, 1.55, 7.07, repro,
2012-01-20,2.43, -0.05, 13.55, 2.23, 1.56, 7.27, repro,
2012-01-21,3.19, 0.08, 13.55, 2.24, 1.54, 7.23, repro,
2012-01-22,0.70, 3.93, -37.70, 2.46, 1.69, 7.89, repro,
2012-01-23,1.23, 3.90, -27.12, 2.38, 1.64, 7.45, repro,
2012-01-24,2.59, 1.85, -3.45, 2.30, 1.59, 7.19, repro,
2012-01-25,-0.05, 1.03, 0.54, 2.33, 1.60, 7.37, repro,
2012-01-26,2.89, 0.23, -5.56, 2.24, 1.61, 7.32, repro,
2012-01-27,0.29, 2.51, -23.93, 2.32, 1.58, 7.29, repro,
2012-01-28,-2.55, 2.28, -21.47, 2.19, 1.54, 6.96, repro,
2012-01-29,-1.59, 1.84, -20.24, 2.21, 1.57, 7.11, repro,
2012-01-30,2.17, 0.58, -4.45, 2.19, 1.52, 6.99, repro,
2012-01-31,1.67, 0.89, -6.75, 2.20, 1.55, 7.00, repro,
2012-02-01,1.26, 1.14, -14.42, 2.11, 1.49, 6.80, repro,
2012-02-02,2.33, 0.88, -15.72, 2.18, 1.57, 7.17, repro,
2012-02-03,1.91, 0.71, -16.41, 2.19, 1.52, 6.94, repro,
2012-02-04,1.61, 1.77, -16.66, 2.26, 1.59, 7.30, repro,
2012-02-05,1.14, 2.10, -14.36, 2.20, 1.57, 7.14, repro,
2012-02-06,1.39, 0.64, -11.81, 2.21, 1.54, 7.01, repro,
2012-02-07,2.60, 2.36, -14.95, 2.19, 1.56, 7.13, repro,
2012-02-08,1.19, 0.70, -14.35, 2.13, 1.53, 6.99, repro,
2012-02-09,-1.21, 0.84, -14.39, 2.26, 1.58, 7.27, repro,
2012-02-10,0.22, 1.10, -13.59, 2.29, 1.59, 7.23, repro,
2012-02-11,1.29, 1.16, -11.73, 2.29, 1.56, 7.19, repro,
2012-02-12,0.50, -0.02, -13.81, 2.31, 1.58, 7.43, repro,
2012-02-13,0.16, -0.89, -10.89, 2.24, 1.55, 7.09, repro,
2012-02-14,0.78, -0.22, -4.76, 2.20, 1.55, 7.08, repro,
2012-02-15,3.42, 2.84, -11.93, 2.27, 1.58, 7.27, repro,
2012-02-16,1.37, -0.77, -6.81, 2.24, 1.56, 7.05, repro,
2012-02-17,1.08, -0.04, -10.06, 2.31, 1.56, 7.49, repro,
2012-02-18,1.42, -0.29, -3.32, 2.16, 1.52, 6.96, repro,
2012-02-19,2.86, 0.04, -0.04, 2.22, 1.55, 7.02, repro,
2012-02-20,3.83, 0.20, 3.15, 2.30, 1.58, 7.20, repro,
2012-02-21,1.29, 0.52, 10.96, 2.37, 1.62, 7.42, repro,
2012-02-22,1.96, -0.97, 25.32, 2.31, 1.59, 7.29, repro,
2012-02-23,4.34, -2.26, 20.42, 2.18, 1.52, 7.02, repro,
2012-02-24,6.36, -2.76, 8.53, 2.09, 1.49, 6.79, repro,
2012-02-25,6.99, -2.31, 6.39, 2.19, 1.52, 7.12, repro,
2012-02-26,7.93, -2.59, 25.86, 2.11, 1.51, 6.82, repro,
2012-02-27,6.59, -1.48, 21.01, 2.26, 1.54, 7.04, repro,
2012-02-28,6.37, -1.69, 25.26, 2.26, 1.54, 7.07, repro,
2012-02-29,8.62, -1.19, 34.32, 2.29, 1.57, 7.26, repro,
2012-03-01,5.10, -0.85, 36.75, 2.17, 1.50, 6.88, repro,
2012-03-02,6.23, 1.28, 42.48, 2.21, 1.54, 7.06, repro,
2012-03-03,7.34, 0.69, 47.41, 2.15, 1.49, 6.84, repro,
2012-03-04,7.03, 1.34, 54.27, 2.23, 1.50, 6.97, repro,
2012-03-05,25.80, 57.44, -48.17, 16.28, 12.39, 58.24, repro,
2012-03-15,12.33, -0.35, 107.26, 5.66, 4.13, 19.18, repro,
2012-03-16,13.13, -0.17, 67.41, 5.37, 3.56, 16.16, repro,
2012-03-17,9.00, -1.80, 56.24, 4.74, 3.28, 15.73, repro,
2012-03-18,5.22, 1.79, 69.51, 2.67, 1.89, 8.81, repro,
2012-03-19,3.03, -2.26, 69.19, 8.66, 4.94, 22.90, repro,
2012-03-22,10.93, -6.06, 96.34, 8.27, 5.65, 31.10, repro,
2012-03-23,8.58, -1.59, 68.26, 3.24, 2.18, 10.00, repro,
2012-03-24,2.45, -5.54, 48.78, 3.10, 2.10, 9.79, repro,
2012-03-25,3.91, -2.90, 39.36, 2.19, 1.50, 6.98, repro,
2012-03-26,2.97, -0.39, 44.38, 2.18, 1.52, 7.04, repro,
2012-03-27,4.97, -3.40, 63.17, 5.47, 3.64, 18.83, repro,
2012-03-28,4.87, 1.58, 62.60, 2.19, 1.52, 7.02, repro,
2012-03-31,5.49, 1.77, 111.02, 4.49, 3.20, 15.52, repro,
2012-04-01,11.15, -1.36, 108.32, 2.12, 1.49, 6.86, repro,
2012-04-02,8.87, -2.24, 84.27, 2.54, 1.79, 8.46, repro,
2012-04-03,10.94, 0.90, 96.83, 2.15, 1.51, 6.96, repro,
2012-04-04,5.54, 2.78, 69.18, 2.13, 1.50, 6.86, repro,
2012-04-05,5.50, 3.02, -2.09, 2.15, 1.51, 6.95, repro,
2012-04-06,4.92, 1.49, -4.96, 2.15, 1.51, 6.91, repro,